{"data":{"norad_id":62215,"epoch":"2026-05-24T13:37:32.808576Z","epoch_age_seconds":115940,"freshness":"FRESH","line1":"1 62215U 24229Z   26144.56774084  .00010189  00000+0  37920-3 0  9995","line2":"2 62215  43.0002 202.3874 0002131 269.4918  90.5690 15.27586478 82168","mean_motion":15.27586478,"eccentricity":0.0002131,"inclination_deg":43.0002,"raan_deg":202.3874,"arg_perigee_deg":269.4918,"mean_anomaly_deg":90.569,"bstar":0.0003792,"rev_number":8216,"period_min":94.266348958871,"perigee_km":481.56758402227,"apogee_km":484.49181326924,"semimajor_km":6861.1666986458,"source":"CELESTRAK","updated_at":"2026-05-25T13:38:19.612691Z"}}